SCP
0 0 0 0 0 0 0 0 0 0 0 0 0 0 0 0 0 0 0 0 0 0
0 0 0 0 0 0 0 0 0 0 0 0 0 0 0 0 0 0 0 0 0 0
0 0 0 0 0 0 0 0 0 0 0 0 0 0 0 0 0 0 0 0 0 0
0 0 0 0 0 0 0 0 0 0 0 0 0 0 0 0 0 0 0 0 0 0
0 0 0 0 0 0 0 0 0 0 0 0 0 0 0 0 0 0 0 0 0 0
0 0 0 0 0 0 0 0 0 0 0 0 0 0 0 0 0 0 0 0 0 0
0 0 0 0 0 0 0 0 0 0 0 0 0 0 0 0 0 0 0 0 0 0
0 0 0 0 0 0 0 0 0 0 0 0 0 0 0 0 0 -0 -0 -0 0 0
0 0 0 0 0 0 0 0 0 0 0 0 0 0 0 -0 -0 -0 -0 -0 0 0
0 0 0 0 0 0 0 0 0 0 0 0 0 -0 -0 -0 0 0 0 0 0 0
0 0 0 0 0 0 0 0 0 0 0 -0 -0 -0 -0 -0 0 0 0 0 0 0
0 0 0 0 0 0 0 0 0 0 -0 -0 -0 -0 -0 -0 0 0 0 0 0 0
0 0 0 0 0 0 0 0 0 -0 -0 -0 -0 0 0 0 0 0 0 0 0 0
0 0 0 0 0 0 0 0 -0 -0 -0 -0 0 0 0 0 0 0 0 0 0 0
Wind_Speed_500mb
41 26 20 31 32 33 32 39 46 54 59 59 60 61 59 62 64 66 71 74 74 72
38 33 32 34 36 34 40 42 47 61 67 66 63 62 59 59 62 62 67 71 74 76
34 32 32 36 41 47 52 55 59 61 55 53 54 55 56 59 62 63 68 70 71 73
27 30 36 41 42 46 52 56 51 50 50 53 56 55 56 59 61 63 67 70 77 79
30 33 37 36 44 48 49 49 49 51 52 55 57 56 57 60 61 63 67 70 72 80
35 31 29 35 42 46 48 49 50 52 55 58 58 59 60 62 65 67 71 73 74 78
24 35 39 46 53 56 56 57 56 58 59 61 61 61 62 63 67 71 76 78 82 86
33 42 47 54 61 60 57 58 57 61 63 62 61 62 61 62 65 69 69 70 76 80
40 42 52 62 59 56 56 59 59 61 62 66 64 66 74 72 67 63 64 70 72 76
41 49 60 60 55 56 59 62 63 62 62 66 66 71 67 63 64 67 64 66 69 67
45 56 59 54 54 56 58 61 63 63 63 67 69 70 64 64 65 67 70 72 73 77
55 58 55 54 55 57 58 60 62 62 65 65 68 65 63 60 63 63 67 68 70 73
54 54 52 53 55 55 57 61 61 66 61 61 66 58 53 50 55 60 58 59 60 63
52 49 53 52 51 56 57 62 65 64 62 63 62 62 58 52 52 57 56 54 56 62
Wind_Direction_500mb
245 242 246 269 278 288 288 290 294 294 292 288 285 283 280 277 273 270 267 266 263 262
249 254 266 276 289 295 297 298 298 299 298 294 290 285 281 276 270 266 264 263 260 257
255 267 276 288 295 295 299 302 301 298 292 286 282 278 275 272 270 266 263 261 260 257
257 272 283 292 298 301 300 301 294 291 285 282 281 278 275 272 272 268 265 261 258 256
265 281 290 293 298 301 298 296 291 288 284 283 282 279 276 273 271 269 266 264 260 256
277 280 286 295 300 299 296 294 292 289 286 286 283 281 278 274 273 269 266 264 261 258
266 288 297 305 308 306 304 300 298 295 291 289 287 284 281 277 274 270 267 263 260 254
280 297 308 313 311 307 303 301 298 297 295 291 287 286 282 278 274 270 268 264 260 257
290 303 313 314 309 305 304 304 301 298 295 293 291 287 282 281 276 273 268 266 263 260
298 311 315 313 309 307 307 306 302 300 298 296 294 289 287 283 278 274 270 265 263 262
310 314 314 311 309 308 308 305 304 303 302 300 296 297 294 291 284 278 273 268 263 261
315 314 313 311 310 311 308 307 306 304 305 302 303 307 305 297 288 280 276 272 267 262
312 314 312 312 312 312 310 307 306 308 308 307 315 320 317 308 298 291 284 278 272 269
315 314 314 315 313 313 312 309 313 313 317 325 330 329 328 320 310 300 291 282 280 280
Wind_Speed_850mb
41 26 20 31 32 33 32 39 46 54 59 59 60 61 59 62 64 66 71 74 74 72
38 33 32 34 36 34 40 42 47 61 67 66 63 62 59 59 62 62 67 71 74 76
34 32 32 36 41 47 52 55 59 61 55 53 54 55 56 59 62 63 68 70 71 73
27 30 36 41 42 46 52 56 51 50 50 53 56 55 56 59 61 63 67 70 77 79
30 33 37 36 44 48 49 49 49 51 52 55 57 56 57 60 61 63 67 70 72 80
35 31 29 35 42 46 48 49 50 52 55 58 58 59 60 62 65 67 71 73 74 78
24 35 39 46 53 56 56 57 56 58 59 61 61 61 62 63 67 71 76 78 82 86
33 42 47 54 61 60 57 58 57 61 63 62 61 62 61 62 65 69 69 70 76 80
40 42 52 62 59 56 56 59 59 61 62 66 64 66 74 72 67 63 64 70 72 76
41 49 60 60 55 56 59 62 63 62 62 66 66 71 67 63 64 67 64 66 69 67
45 56 59 54 54 56 58 61 63 63 63 67 69 70 64 64 65 67 70 72 73 77
55 58 55 54 55 57 58 60 62 62 65 65 68 65 63 60 63 63 67 68 70 73
54 54 52 53 55 55 57 61 61 66 61 61 66 58 53 50 55 60 58 59 60 63
52 49 53 52 51 56 57 62 65 64 62 63 62 62 58 52 52 57 56 54 56 62
Wind_Direction_850mb
245 242 246 269 278 288 288 290 294 294 292 288 285 283 280 277 273 270 267 266 263 262
249 254 266 276 289 295 297 298 298 299 298 294 290 285 281 276 270 266 264 263 260 257
255 267 276 288 295 295 299 302 301 298 292 286 282 278 275 272 270 266 263 261 260 257
257 272 283 292 298 301 300 301 294 291 285 282 281 278 275 272 272 268 265 261 258 256
265 281 290 293 298 301 298 296 291 288 284 283 282 279 276 273 271 269 266 264 260 256
277 280 286 295 300 299 296 294 292 289 286 286 283 281 278 274 273 269 266 264 261 258
266 288 297 305 308 306 304 300 298 295 291 289 287 284 281 277 274 270 267 263 260 254
280 297 308 313 311 307 303 301 298 297 295 291 287 286 282 278 274 270 268 264 260 257
290 303 313 314 309 305 304 304 301 298 295 293 291 287 282 281 276 273 268 266 263 260
298 311 315 313 309 307 307 306 302 300 298 296 294 289 287 283 278 274 270 265 263 262
310 314 314 311 309 308 308 305 304 303 302 300 296 297 294 291 284 278 273 268 263 261
315 314 313 311 310 311 308 307 306 304 305 302 303 307 305 297 288 280 276 272 267 262
312 314 312 312 312 312 310 307 306 308 308 307 315 320 317 308 298 291 284 278 272 269
315 314 314 315 313 313 312 309 313 313 317 325 330 329 328 320 310 300 291 282 280 280